Location: Risskov
(56.1972°N, 10.2480°E)
Time: 12:53:23
(UTC+00:00)

Cosmos 2056 Rocket - Pass Details

Date: 05 July 2020
Orbit: 741 x 801 km, 74.0° (Epoch: 07 August)

Event Time Altitude Azimuth Distance (km) Brightness Sun altitude
Rises 21:13:58 0° 331° (NNW) 3,296 9.6 -6.5°
Reaches altitude 10° 21:16:25 10° 336° (NNW) 2,371 7.8 -6.6°
Maximum altitude 21:21:44 55° 54° (NE) 959 4.1 -7.0°
Drops below altitude 10° 21:27:03 10° 133° (SE) 2,377 5.5 -7.3°
Enters shadow 21:27:38 - 134° (SE) 2,593 5.6 -7.4°
